Weather History for KBFW - April, 2013

Change the Weather History Date:

Thursday, April 18, 2013

  Actual Average Record
Temperature  
Mean Temperature 30 °F -  
Max Temperature 35 °F 45 °F - (-1)
Min Temperature 26 °F 25 °F - (-1)
Degree Days  
Heating Degree Days 34    
Moisture  
Dew Point 26 °F    
Average Humidity 83    
Maximum Humidity 93    
Minimum Humidity 65    
Precipitation  
Precipitation 0.32 in - - ()
Sea Level Pressure  
Sea Level Pressure 29.73 in    
Wind  
Wind Speed 2 mph (NNE)    
Max Wind Speed 13 mph    
Max Gust Speed 18 mph    
Visibility 4 miles    
Events Rain    
Averages and records for this station are not official NWS values.
T = Trace of Precipitation, MM = Missing Value Source: NWS Daily Summary

Daily Weather History Graph

Daily Weather History Graph

Search for Another Location

Airport or City:

Trip Planner

Search our weather history database for the weather conditions in past years. The results will help you decide how hot, cold, wet, or windy it might be!

Date:

Astronomy

Apr. 18, 2013 Rise Set
Actual Time 6:11 AM CDT 7:59 PM CDT
Civil Twilight 5:39 AM CDT 8:31 PM CDT
Nautical Twilight 4:59 AM CDT 9:11 PM CDT
Astronomical Twilight 4:15 AM CDT 9:55 PM CDT
Moon 12:19 PM CDT (4/18) 2:19 AM CDT (4/18)
Length of Visible Light 14h 52m
Length of Day
13h 47m
First Quarter, 52% of the Moon is Illuminated
Apr 18
First Quarter
Apr 25
Full
May 2
Last Quarter
May 9
New
May 17
First Quarter

Hourly Weather History & Observations

Time (CDT) Temp. Windchill Dew Point Humidity Pressure Visibility Wind Dir Wind Speed Gust Speed Precip Events Conditions
12:13 AM 26.6 °F - 24.8 °F 93% 30.05 in 5.0 mi Calm Calm - N/A Rain Light Freezing Rain
12:33 AM 26.6 °F - 24.8 °F 93% 30.02 in 4.0 mi Calm Calm - N/A Rain Light Freezing Rain
12:53 AM 26.6 °F - 24.8 °F 93% 30.00 in 5.0 mi Calm Calm - 0.01 in Rain Light Freezing Rain
1:13 AM 26.6 °F - 24.8 °F 93% 30.00 in 5.0 mi Calm Calm - 0.01 in Rain Light Freezing Rain
1:33 AM 28.4 °F - 24.8 °F 86% 29.99 in 5.0 mi Calm Calm - 0.01 in Rain Light Freezing Rain
1:53 AM 28.4 °F - 24.8 °F 86% 29.98 in 4.0 mi Calm Calm - N/A Rain Light Freezing Rain
2:13 AM 28.4 °F - 24.8 °F 86% 29.96 in 4.0 mi Calm Calm - 0.01 in Rain Light Freezing Rain
2:33 AM 28.4 °F - 24.8 °F 86% 29.95 in 3.0 mi Calm Calm - 0.01 in Rain Light Freezing Rain
2:53 AM 28.4 °F - 24.8 °F 86% 29.93 in 3.0 mi Calm Calm - N/A Rain Light Freezing Rain
3:13 AM 28.4 °F 22.2 °F 24.8 °F 86% 29.91 in 4.0 mi NNE 5.8 mph - 0.01 in Rain Light Freezing Rain
3:33 AM 28.4 °F - 24.8 °F 86% 29.90 in 4.0 mi Calm Calm - 0.01 in Rain Light Freezing Rain
3:53 AM 28.4 °F - 24.8 °F 86% 29.89 in 5.0 mi Calm Calm - N/A Rain Light Freezing Rain
4:33 AM 28.4 °F - 24.8 °F 86% 29.89 in 4.0 mi Calm Calm - N/A Rain Light Freezing Rain
4:53 AM 28.4 °F - 24.8 °F 86% 29.87 in 3.0 mi Calm Calm - N/A Rain Light Freezing Rain
5:13 AM 28.4 °F - 24.8 °F 86% 29.86 in 3.0 mi Calm Calm - 0.01 in Rain Light Freezing Rain
5:33 AM 28.4 °F - 24.8 °F 86% 29.85 in 3.0 mi Calm Calm - 0.01 in Rain Light Freezing Rain
5:53 AM 28.4 °F - 24.8 °F 86% 29.85 in 3.0 mi Calm Calm - N/A Rain Light Freezing Rain
6:13 AM 28.4 °F - 24.8 °F 86% 29.85 in 4.0 mi Calm Calm - N/A Rain Light Freezing Rain
6:33 AM 28.4 °F - 24.8 °F 86% 29.85 in 3.0 mi Calm Calm - N/A Rain Light Freezing Rain
6:53 AM 28.4 °F - 24.8 °F 86% 29.85 in 2.5 mi Calm Calm - N/A Rain Light Freezing Rain
7:13 AM 28.4 °F - 24.8 °F 86% 29.85 in 1.8 mi Calm Calm - N/A Rain Light Freezing Rain
7:33 AM 28.4 °F - 24.8 °F 86% 29.84 in 1.8 mi Calm Calm - 0.01 in Rain Light Freezing Rain
7:53 AM 28.4 °F 22.2 °F 24.8 °F 86% 29.83 in 2.5 mi NNE 5.8 mph - N/A Rain Light Freezing Rain
8:13 AM 28.4 °F - 24.8 °F 86% 29.82 in 2.5 mi Calm Calm - N/A Rain Light Freezing Rain
8:33 AM 30.2 °F 26.7 °F 24.8 °F 80% 29.82 in 3.0 mi NNE 3.5 mph - N/A Rain Light Freezing Rain
8:53 AM 30.2 °F - 24.8 °F 80% 29.81 in 3.0 mi Calm Calm - N/A Rain Light Freezing Rain
9:13 AM 30.2 °F 26.7 °F 24.8 °F 80% 29.80 in 4.0 mi NNE 3.5 mph - N/A Rain Light Freezing Rain
9:34 AM 30.2 °F 25.4 °F 24.8 °F 80% 29.78 in 4.0 mi NNE 4.6 mph - N/A Rain Light Freezing Rain
9:53 AM 32.0 °F 27.5 °F 24.8 °F 75% 29.77 in 4.0 mi NNE 4.6 mph - N/A Rain Light Rain
10:14 AM 32.0 °F 28.7 °F 24.8 °F 75% 29.75 in 5.0 mi NNE 3.5 mph - N/A   Light Drizzle
10:33 AM 33.8 °F 30.8 °F 24.8 °F 70% 29.77 in 7.0 mi NNE 3.5 mph - N/A Rain Light Rain
10:53 AM 33.8 °F - 24.8 °F 70% 29.76 in 10.0 mi Calm Calm - N/A Rain Light Rain
11:13 AM 33.8 °F 29.6 °F 24.8 °F 70% 29.75 in 10.0 mi NNE 4.6 mph - N/A   Clear
11:33 AM 35.6 °F 29.9 °F 24.8 °F 65% 29.73 in 7.0 mi NNE 6.9 mph - N/A   Clear
11:53 AM 35.6 °F 28.6 °F 24.8 °F 65% 29.73 in 7.0 mi NNE 9.2 mph - N/A   Clear
12:13 PM 35.6 °F 29.9 °F 24.8 °F 65% 29.72 in 10.0 mi NNE 6.9 mph - N/A   Clear
12:33 PM 35.6 °F 28.6 °F 24.8 °F 65% 29.71 in 10.0 mi NE 9.2 mph - N/A   Clear
12:53 PM 35.6 °F 30.7 °F 24.8 °F 65% 29.72 in 10.0 mi NE 5.8 mph - N/A   Clear
1:13 PM 35.6 °F 29.9 °F 24.8 °F 65% 29.70 in 10.0 mi NE 6.9 mph - N/A   Clear
1:33 PM 35.6 °F 30.7 °F 24.8 °F 65% 29.70 in 10.0 mi NNE 5.8 mph - N/A   Clear
1:53 PM 33.8 °F 27.0 °F 24.8 °F 70% 29.71 in 10.0 mi NNE 8.1 mph - N/A   Clear
2:13 PM 33.8 °F 30.8 °F 26.6 °F 75% 29.69 in 4.0 mi NNE 3.5 mph - N/A Rain Light Rain
2:34 PM 33.8 °F 29.6 °F 26.6 °F 75% 29.67 in 4.0 mi NNE 4.6 mph - N/A Rain Heavy Rain
2:53 PM 33.8 °F - 28.4 °F 81% 29.67 in 3.0 mi Calm Calm - N/A Rain Heavy Rain
3:13 PM 33.8 °F 30.8 °F 28.4 °F 81% 29.67 in 5.0 mi North 3.5 mph - 0.01 in Rain Rain
3:33 PM 33.8 °F - 28.4 °F 81% 29.67 in 4.0 mi Calm Calm - 0.01 in Rain Heavy Rain
3:54 PM 32.0 °F - 28.4 °F 87% 29.66 in 2.5 mi Calm Calm - 0.01 in Rain Heavy Rain
4:13 PM 32.0 °F - 28.4 °F 87% 29.66 in 1.2 mi Calm Calm - 0.02 in Rain Heavy Rain
4:33 PM 32.0 °F - 28.4 °F 87% 29.64 in 1.2 mi Calm Calm - 0.03 in Rain Rain
4:53 PM 32.0 °F 25.6 °F 28.4 °F 87% 29.61 in 1.2 mi NNE 6.9 mph - 0.01 in Rain Heavy Rain
5:13 PM 32.0 °F 25.6 °F 28.4 °F 87% 29.61 in 1.2 mi NNE 6.9 mph - 0.02 in Rain Heavy Rain
5:33 PM 32.0 °F 26.4 °F 28.4 °F 87% 29.60 in 2.5 mi NNE 5.8 mph - 0.04 in Rain Heavy Rain
5:53 PM 32.0 °F 27.5 °F 28.4 °F 87% 29.59 in 1.8 mi NNE 4.6 mph - 0.01 in Rain Heavy Rain
6:13 PM 32.0 °F 24.8 °F 28.4 °F 87% 29.56 in 3.0 mi NE 8.1 mph - 0.02 in Rain Heavy Rain
6:33 PM 30.2 °F 22.6 °F 28.4 °F 93% 29.57 in 1.2 mi NE 8.1 mph 17.3 mph 0.04 in Rain Light Freezing Rain
6:54 PM 30.2 °F 21.9 °F 28.4 °F 93% 29.57 in 2.0 mi NNE 9.2 mph - N/A Rain Light Freezing Rain
7:13 PM 30.2 °F 21.3 °F 28.4 °F 93% 29.58 in 1.2 mi NNE 10.4 mph 16.1 mph 0.02 in Rain Light Freezing Rain
7:33 PM 30.2 °F - 28.4 °F 93% 29.57 in 1.0 mi Calm Calm - 0.03 in   Unknown
7:53 PM 30.2 °F 25.4 °F 28.4 °F 93% 29.57 in 1.5 mi NE 4.6 mph - N/A Rain Light Freezing Rain
8:13 PM 30.2 °F 24.3 °F 26.6 °F 86% 29.54 in 2.5 mi NNE 5.8 mph - 0.02 in Rain Light Freezing Rain
8:33 PM 30.2 °F 23.4 °F 26.6 °F 86% 29.52 in 2.0 mi NNE 6.9 mph - 0.03 in Rain Light Freezing Rain
8:53 PM 30.2 °F 20.2 °F 26.6 °F 86% 29.51 in 3.0 mi NNE 12.7 mph 18.4 mph N/A Rain Light Freezing Rain
9:13 PM 30.2 °F 24.3 °F 26.6 °F 86% 29.55 in 3.0 mi NNE 5.8 mph - 0.02 in Rain Light Freezing Rain
9:33 PM 30.2 °F 23.4 °F 26.6 °F 86% 29.57 in 2.5 mi NNE 6.9 mph - 0.03 in Rain Light Freezing Rain
9:53 PM 28.4 °F 20.4 °F 26.6 °F 93% 29.56 in 2.0 mi NNE 8.1 mph 16.1 mph N/A Rain Light Freezing Rain
10:33 PM 28.4 °F 20.4 °F 26.6 °F 93% 29.50 in 1.5 mi NNE 8.1 mph 17.3 mph 0.02 in Rain Light Freezing Rain
10:53 PM 28.4 °F 19.1 °F 26.6 °F 93% 29.48 in 1.2 mi NNE 10.4 mph 16.1 mph 0.01 in Rain Light Freezing Rain
11:13 PM 28.4 °F 19.7 °F 24.8 °F 86% 29.47 in 4.0 mi NNE 9.2 mph - 0.02 in Rain Light Freezing Rain
11:34 PM 28.4 °F 19.1 °F 24.8 °F 86% 29.45 in 2.5 mi NE 10.4 mph 17.3 mph 0.03 in Rain Light Freezing Rain
11:53 PM 28.4 °F 21.2 °F 24.8 °F 86% 29.44 in 3.0 mi NNE 6.9 mph 16.1 mph 0.01 in Rain Light Freezing Rain